Hourly Data Report for October 22, 2014

All times are specified in Local Standard Time (LST). Add 1 hour to adjust for Daylight Saving Time where and when it is observed.

CAPE DORSET A
NUNAVUT

64°13'49.000" N
76°31'30.000" W
48.20 m
2400637
71366
YTE

Download Data

Hourly Data (October 2014)
Hourly Data Report for October 22, 2014
Temp Definition
°C
Dew Point Temp Definition
°C
Rel Hum Definition
%
Wind Dir Definition
10's deg

Wind Spd Definition
km/h
Visibility Definition
km
Stn Press Definition
kPa
Hmdx Definition


Wind Chill Definition


Weather Definition


TIME
00:00 Legend Double Dagger 0.8 0.3 96 17 32 12.9 99.61     Rain
01:00 Legend Double Dagger 0.9 LegendMM LegendMM 18 34 4.8 99.41     Rain
02:00 Legend Double Dagger 1.4 LegendMM LegendMM 21 43 2.0 99.23     Rain
03:00 Legend Double Dagger 0.7 LegendMM LegendMM 24 39 4.8 99.16     Rain
04:00 Legend Double Dagger 0.4 LegendMM LegendMM 25 37 3.2 99.11     LegendNANA
05:00 Legend Double Dagger 0.5 LegendMM LegendMM 25 46 2.8 99.09     Rain
06:00 Legend Double Dagger 0.5 LegendMM LegendMM 25 55 2.8 99.06     Rain
07:00 Legend Double Dagger 0.3 LegendMM LegendMM 26 46 0.6 99.14     Moderate Snow
08:00 Legend Double Dagger 0.1 LegendMM LegendMM 27 41 4.8 99.22     LegendNANA
09:00 Legend Double Dagger -0.2 LegendMM LegendMM 27 37 8.1 99.31   -7 Haze
10:00 Legend Double Dagger -0.1 LegendMM LegendMM 27 30 8.1 99.41   -7 Haze
11:00 Legend Double Dagger 0.0 -1.1 92 28 30 16.1 99.50   -6 LegendNANA
12:00 Legend Double Dagger 0.4 -1.1 90 28 26 16.1 99.58     LegendNANA
13:00 Legend Double Dagger -0.4 LegendMM LegendMM 26 26 16.1 99.68   -7 LegendNANA
14:00 Legend Double Dagger -0.6 -0.9 98 29 24 16.1 99.79   -7 LegendNANA
15:00 Legend Double Dagger -1.1 -2.6 90 26 21 16.1 99.87   -7 LegendNANA
16:00 Legend Double Dagger -1.3 -3.0 88 24 13 16.1 99.96   -6 LegendNANA
17:00 Legend Double Dagger -1.3 -3.3 87 LegendMM 4 16.1 100.07   -3 Snow
18:00 Legend Double Dagger -1.6 -3.5 87 3 13 16.1 100.17   -6 LegendNANA
19:00 Legend Double Dagger -2.3 -4.2 87 2 24 16.1 100.26   -9 LegendNANA
20:00 Legend Double Dagger -2.6 -3.8 92 1 18 6.4 100.33   -8 Snow
21:00 Legend Double Dagger -3.1 -5.2 86 1 24 16.1 100.44   -10 LegendNANA
22:00 Legend Double Dagger -3.4 -5.8 84 1 24 16.1 100.50   -10 LegendNANA
23:00 Legend Double Dagger -3.5 -6.3 81 2 21 16.1 100.57   -10 LegendNANA

Notes on Data Quality.

Legend

  • E = Estimated
  • M = Missing
  • NA = Not Available
  • ‡ = Partner data that is not subject to review by the National Climate Archives
Date modified: